| time (UTC) | temp F | wind direction | speed knots | gust knots | rain 1hr in | rain 24hr in | rain mn in | humidity % | barometer mb |
| 20260904214540 | 81 | 0 | 0.0 | 0.0 | 0.00 | 0.03 | 0.02 | 77 | 1010.9 |
| 20260904213036 | 82 | 0 | 0.0 | 2.6 | 0.00 | 0.03 | 0.02 | 72 | 1011.0 |
| 20260904211532 | 82 | 0 | 0.0 | 1.7 | 0.00 | 0.03 | 0.02 | 72 | 1010.9 |
| 20260904210040 | 82 | 0 | 0.0 | 2.6 | 0.00 | 0.03 | 0.02 | 69 | 1010.8 |
| 20260904204534 | 82 | 0 | 0.0 | 0.9 | 0.00 | 0.03 | 0.02 | 70 | 1011.0 |
| 20260904203033 | 82 | 0 | 0.0 | 3.5 | 0.00 | 0.03 | 0.02 | 72 | 1011.1 |
| 20260904201535 | 82 | 0 | 0.0 | 1.7 | 0.00 | 0.03 | 0.02 | 75 | 1011.1 |
| 20260904200035 | 82 | 0 | 0.0 | 5.2 | 0.00 | 0.03 | 0.02 | 70 | 1011.4 |
| 20260904194540 | 82 | 0 | 0.0 | 3.5 | 0.00 | 0.03 | 0.02 | 69 | 1011.5 |
| 20260904193044 | 82 | 0 | 0.0 | 2.6 | 0.00 | 0.03 | 0.02 | 72 | 1011.8 |
| 20260904191533 | 82 | 281 | 0.0 | 5.2 | 0.00 | 0.03 | 0.02 | 71 | 1012.0 |
| 20260904190036 | 82 | 0 | 0.0 | 1.7 | 0.00 | 0.03 | 0.02 | 71 | 1012.1 |
| 20260904184538 | 81 | 262 | 0.0 | 3.5 | 0.00 | 0.03 | 0.02 | 71 | 1012.3 |
| 20260904183032 | 80 | 0 | 0.0 | 0.0 | 0.00 | 0.03 | 0.02 | 74 | 1012.4 |
| 20260904181531 | 80 | 0 | 0.0 | 0.0 | 0.00 | 0.03 | 0.02 | 72 | 1012.4 |
| 20260904180032 | 81 | 0 | 0.0 | 0.0 | 0.00 | 0.03 | 0.02 | 75 | 1012.7 |
| 20260904174536 | 81 | 0 | 0.0 | 0.0 | 0.00 | 0.03 | 0.02 | 75 | 1012.5 |
| 20260904173042 | 81 | 0 | 0.0 | 1.7 | 0.00 | 0.03 | 0.02 | 72 | 1012.4 |
| 20260904171532 | 81 | 0 | 0.0 | 2.6 | 0.00 | 0.03 | 0.02 | 71 | 1012.2 |
| 20260904170033 | 81 | 250 | 0.9 | 4.3 | 0.00 | 0.03 | 0.02 | 71 | 1012.4 |
| 20260904164534 | 81 | 0 | 0.0 | 3.5 | 0.00 | 0.03 | 0.02 | 71 | 1012.5 |
| 20260904163036 | 81 | 286 | 0.0 | 7.8 | 0.00 | 0.03 | 0.02 | 74 | 1012.5 |
| 20260904161532 | 80 | 298 | 0.0 | 5.2 | 0.00 | 0.03 | 0.02 | 74 | 1012.5 |
| 20260904160040 | 81 | 0 | 0.0 | 5.2 | 0.00 | 0.03 | 0.02 | 73 | 1012.6 |
| 20260904154533 | 80 | 276 | 0.9 | 5.2 | 0.00 | 0.03 | 0.02 | 75 | 1012.6 |
| 20260904153043 | 80 | 0 | 0.0 | 3.5 | 0.00 | 0.03 | 0.02 | 74 | 1012.7 |
| 20260904151536 | 79 | 0 | 0.0 | 3.5 | 0.00 | 0.03 | 0.02 | 76 | 1012.7 |
| 20260904150036 | 79 | 275 | 0.0 | 2.6 | 0.00 | 0.03 | 0.02 | 78 | 1012.7 |
| 20260904144534 | 79 | 0 | 1.7 | 6.1 | 0.00 | 0.03 | 0.02 | 78 | 1012.9 |
| 20260904143033 | 78 | 302 | 1.7 | 5.2 | 0.00 | 0.03 | 0.02 | 80 | 1012.8 |
| 20260904141544 | 78 | 0 | 0.9 | 3.5 | 0.00 | 0.03 | 0.02 | 81 | 1012.6 |
| 20260904140032 | 78 | 284 | 1.7 | 6.1 | 0.00 | 0.03 | 0.02 | 82 | 1012.5 |
| 20260904134534 | 77 | 0 | 0.0 | 3.5 | 0.00 | 0.03 | 0.02 | 83 | 1012.8 |
| 20260904133033 | 76 | 0 | 0.0 | 2.6 | 0.00 | 0.03 | 0.02 | 86 | 1012.6 |
| 20260904131533 | 75 | 0 | 0.0 | 5.2 | 0.00 | 0.03 | 0.02 | 88 | 1012.6 |
| 20260904130033 | 75 | 0 | 0.0 | 3.5 | 0.00 | 0.03 | 0.02 | 91 | 1012.6 |
| 20260904124537 | 74 | 0 | 0.0 | 3.5 | 0.00 | 0.03 | 0.02 | 92 | 1012.6 |
| 20260904123033 | 73 | 0 | 0.0 | 2.6 | 0.00 | 0.03 | 0.02 | 95 | 1012.8 |
| 20260904121533 | 73 | 0 | 0.0 | 5.2 | 0.00 | 0.03 | 0.02 | 95 | 1012.5 |
| 20260904120034 | 72 | 0 | 0.0 | 2.6 | 0.00 | 0.03 | 0.02 | 96 | 1012.3 |
| 20260904114543 | 72 | 277 | 0.9 | 2.6 | 0.00 | 0.03 | 0.02 | 97 | 1012.3 |
| 20260904113033 | 71 | 0 | 0.9 | 3.5 | 0.00 | 0.03 | 0.02 | 97 | 1012.2 |
| 20260904111534 | 71 | 0 | 0.0 | 1.7 | 0.00 | 0.03 | 0.02 | 97 | 1012.1 |
| 20260904110037 | 72 | 0 | 0.0 | 1.7 | 0.00 | 0.03 | 0.02 | 97 | 1011.8 |
| 20260904104532 | 72 | 0 | 0.0 | 0.0 | 0.00 | 0.03 | 0.02 | 97 | 1011.6 |
| 20260904103037 | 72 | 0 | 0.0 | 0.9 | 0.00 | 0.03 | 0.02 | 97 | 1011.4 |
| 20260904101537 | 72 | 0 | 0.0 | 0.0 | 0.00 | 0.03 | 0.02 | 97 | 1011.4 |
| 20260904100032 | 72 | 0 | 0.0 | 1.7 | 0.00 | 0.03 | 0.02 | 98 | 1011.5 |
| 20260904094537 | 72 | 0 | 0.0 | 0.9 | 0.00 | 0.08 | 0.02 | 98 | 1011.6 |
| 20260904093035 | 72 | 0 | 0.0 | 0.0 | 0.00 | 0.08 | 0.02 | 98 | 1011.5 |
| 20260904091535 | 72 | 0 | 0.0 | 0.0 | 0.00 | 0.08 | 0.02 | 97 | 1011.6 |
| 20260904090033 | 72 | 0 | 0.0 | 0.0 | 0.00 | 0.08 | 0.02 | 97 | 1011.8 |
| 20260904084532 | 72 | 0 | 0.0 | 0.0 | 0.00 | 0.23 | 0.02 | 97 | 1011.6 |
| 20260904083041 | 72 | 0 | 0.0 | 0.0 | 0.00 | 0.23 | 0.02 | 97 | 1011.6 |
| 20260904081532 | 72 | 0 | 0.0 | 0.0 | 0.00 | 0.23 | 0.02 | 97 | 1011.5 |
| 20260904080033 | 73 | 0 | 0.0 | 0.0 | 0.00 | 0.23 | 0.02 | 97 | 1011.7 |
| 20260904074536 | 73 | 0 | 0.0 | 0.0 | 0.00 | 0.25 | 0.02 | 97 | 1011.7 |
| 20260904073031 | 73 | 0 | 0.0 | 0.0 | 0.00 | 0.25 | 0.02 | 97 | 1011.4 |
| 20260904071535 | 73 | 0 | 0.0 | 0.0 | 0.00 | 0.25 | 0.02 | 97 | 1011.3 |
| 20260904070031 | 73 | 0 | 0.0 | 0.0 | 0.00 | 0.25 | 0.02 | 97 | 1011.0 |
| 20260904064534 | 73 | 0 | 0.0 | 0.0 | 0.00 | 0.34 | 0.02 | 97 | 1010.9 |
| 20260904063044 | 73 | 0 | 0.0 | 0.0 | 0.01 | 0.34 | 0.02 | 97 | 1011.1 |
| 20260904061536 | 73 | 0 | 0.0 | 0.0 | 0.02 | 0.34 | 0.02 | 97 | 1011.2 |
| 20260904060053 | 73 | 0 | 0.0 | 0.0 | 0.02 | 0.34 | 0.02 | 97 | 1011.8 |
| 20260904054533 | 73 | 0 | 0.0 | 0.0 | 0.02 | 0.61 | 0.02 | 97 | 1012.1 |
| 20260904053035 | 73 | 0 | 0.0 | 0.0 | 0.01 | 0.60 | 0.01 | 97 | 1012.3 |
| 20260904051532 | 73 | 0 | 0.0 | 0.0 | 0.00 | 0.58 | 0.00 | 97 | 1012.2 |
| 20260904050033 | 73 | 0 | 0.0 | 0.0 | 0.00 | 0.58 | 0.00 | 97 | 1012.2 |
| 20260904044543 | 73 | 0 | 0.0 | 0.0 | 0.00 | 0.58 | 0.00 | 97 | 1011.8 |
| 20260904043037 | 73 | 0 | 0.0 | 0.0 | 0.00 | 0.58 | 0.00 | 97 | 1011.7 |
| 20260904041536 | 72 | 0 | 0.0 | 0.0 | 0.00 | 0.58 | 0.00 | 96 | 1012.1 |
| 20260904040037 | 72 | 0 | 0.0 | 0.0 | 0.00 | 0.58 | 0.00 | 95 | 1012.2 |
| 20260904034536 | 72 | 0 | 0.0 | 0.0 | 0.00 | 0.60 | 0.58 | 95 | 1012.4 |
| 20260904033030 | 72 | 0 | 0.0 | 0.0 | 0.00 | 0.60 | 0.58 | 95 | 1012.8 |
| 20260904031533 | 73 | 0 | 0.0 | 0.0 | 0.00 | 0.60 | 0.58 | 95 | 1013.2 |
| 20260904030035 | 73 | 0 | 0.0 | 0.0 | 0.00 | 0.60 | 0.58 | 95 | 1012.9 |
| 20260904024536 | 73 | 0 | 0.0 | 0.0 | 0.00 | 0.60 | 0.58 | 94 | 1012.7 |
| 20260904023034 | 73 | 0 | 0.0 | 0.0 | 0.00 | 0.60 | 0.58 | 93 | 1012.8 |
| 20260904021533 | 73 | 0 | 0.0 | 0.0 | 0.00 | 0.60 | 0.58 | 93 | 1012.9 |
| 20260904020039 | 73 | 0 | 0.0 | 0.0 | 0.00 | 0.60 | 0.58 | 93 | 1013.3 |
| 20260904014539 | 74 | 0 | 0.0 | 0.0 | 0.00 | 0.60 | 0.58 | 92 | 1013.1 |
| 20260904013035 | 74 | 0 | 0.0 | 0.0 | 0.00 | 0.60 | 0.58 | 92 | 1013.5 |
| 20260904011538 | 74 | 0 | 0.0 | 0.9 | 0.00 | 0.60 | 0.58 | 92 | 1013.9 |
| 20260904010044 | 74 | 0 | 0.0 | 0.0 | 0.00 | 0.60 | 0.58 | 91 | 1013.5 |
| 20260904004541 | 74 | 0 | 0.0 | 0.0 | 0.00 | 0.60 | 0.58 | 91 | 1013.3 |
| 20260904003035 | 75 | 0 | 0.0 | 0.0 | 0.00 | 0.60 | 0.58 | 90 | 1013.1 |
| 20260904001533 | 75 | 0 | 0.0 | 0.0 | 0.00 | 0.60 | 0.58 | 89 | 1012.8 |
| 20260904000034 | 75 | 0 | 0.0 | 0.0 | 0.00 | 0.60 | 0.58 | 88 | 1012.7 |
| 20260903234541 | 76 | 0 | 0.0 | 0.0 | 0.00 | 0.60 | 0.58 | 87 | 1013.0 |
| 20260903233034 | 77 | 0 | 0.0 | 0.0 | 0.00 | 0.60 | 0.58 | 85 | 1013.0 |
| 20260903231534 | 78 | 0 | 0.0 | 0.0 | 0.01 | 0.60 | 0.58 | 85 | 1013.0 |
| 20260903230033 | 79 | 0 | 0.0 | 0.0 | 0.01 | 0.60 | 0.58 | 82 | 1012.6 |
| 20260903224532 | 80 | 0 | 0.0 | 0.0 | 0.01 | 0.61 | 0.58 | 81 | 1012.5 |
| 20260903223042 | 80 | 0 | 0.0 | 0.0 | 0.01 | 0.61 | 0.58 | 79 | 1012.5 |
| 20260903221533 | 81 | 0 | 0.0 | 0.0 | 0.00 | 0.60 | 0.58 | 79 | 1012.5 |
| 20260903220040 | 82 | 0 | 0.0 | 0.9 | 0.00 | 0.60 | 0.58 | 81 | 1012.3 |